timestamp,wind_dir_avg,wind_spd_max_dir,wind_spd_avg,wind_spd_gust,battery_voltage,lat,long
2018-03-11 00:00:00+00:00,53.0,52.0,1.78,1.87,,47.59359,-54.27349
2018-03-11 00:10:00+00:00,58.0,58.0,1.84,2.03,,47.59359,-54.27349
2018-03-11 00:20:00+00:00,61.0,56.0,1.71,1.92,,47.59359,-54.27349
2018-03-11 00:30:00+00:00,63.0,62.0,1.84,1.99,,47.59359,-54.27349
2018-03-11 00:40:00+00:00,78.0,78.0,1.71,1.83,,47.59359,-54.27349
2018-03-11 00:50:00+00:00,80.0,84.0,1.29,1.46,,47.59359,-54.27349
2018-03-11 01:00:00+00:00,99.0,104.0,1.35,1.51,,47.59359,-54.27349
2018-03-11 01:10:00+00:00,93.0,95.0,1.61,1.73,,47.59359,-54.27349
2018-03-11 01:20:00+00:00,66.0,66.0,2.11,2.28,,47.59359,-54.27349
2018-03-11 01:30:00+00:00,72.0,69.0,3.09,3.41,,47.59359,-54.27349
2018-03-11 01:40:00+00:00,55.0,60.0,3.65,4.02,,47.59359,-54.27349
2018-03-11 01:50:00+00:00,54.0,54.0,4.04,4.47,,47.59359,-54.27349
2018-03-11 02:00:00+00:00,57.0,56.0,3.89,4.51,,47.59359,-54.27349
2018-03-11 02:10:00+00:00,62.0,62.0,4.32,4.49,,47.59359,-54.27349
2018-03-11 02:20:00+00:00,64.0,61.0,4.87,5.18,,47.59359,-54.27349
2018-03-11 02:30:00+00:00,73.0,73.0,4.51,4.84,,47.59359,-54.27349
2018-03-11 02:40:00+00:00,70.0,68.0,4.46,4.78,,47.59359,-54.27349
2018-03-11 02:50:00+00:00,51.0,49.0,5.28,5.62,,47.59359,-54.27349
2018-03-11 03:00:00+00:00,50.0,51.0,5.14,5.5,,47.59359,-54.27349
2018-03-11 03:10:00+00:00,62.0,61.0,4.45,5.03,,47.59359,-54.27349
2018-03-11 03:20:00+00:00,55.0,56.0,4.45,4.82,,47.59359,-54.27349
2018-03-11 03:30:00+00:00,62.0,64.0,3.58,3.96,,47.59359,-54.27349
2018-03-11 03:40:00+00:00,58.0,58.0,3.94,4.25,,47.59359,-54.27349
2018-03-11 03:50:00+00:00,55.0,55.0,4.03,4.22,,47.59359,-54.27349
2018-03-11 04:00:00+00:00,53.0,50.0,3.95,4.31,,47.59359,-54.27349
2018-03-11 04:10:00+00:00,51.0,53.0,4.67,4.98,,47.59359,-54.27349
2018-03-11 04:20:00+00:00,48.0,48.0,4.78,5.12,,47.59359,-54.27349
2018-03-11 04:30:00+00:00,51.0,50.0,4.4,4.81,,47.59359,-54.27349
2018-03-11 04:40:00+00:00,58.0,62.0,3.73,4.08,,47.59359,-54.27349
2018-03-11 04:50:00+00:00,58.0,56.0,4.79,5.19,,47.59359,-54.27349
2018-03-11 05:00:00+00:00,61.0,60.0,5.08,5.96,,47.59359,-54.27349
2018-03-11 05:10:00+00:00,70.0,71.0,4.64,5.17,,47.59359,-54.27349
2018-03-11 05:20:00+00:00,65.0,60.0,4.12,4.98,,47.59359,-54.27349
2018-03-11 05:30:00+00:00,76.0,78.0,4.02,4.39,,47.59359,-54.27349
2018-03-11 05:40:00+00:00,73.0,73.0,4.51,5.43,,47.59359,-54.27349
2018-03-11 05:50:00+00:00,78.0,72.0,3.18,3.65,,47.59359,-54.27349
2018-03-11 06:00:00+00:00,64.0,62.0,4.39,4.95,,47.59359,-54.27349
2018-03-11 06:10:00+00:00,62.0,63.0,5.69,6.05,,47.59359,-54.27349
2018-03-11 06:20:00+00:00,54.0,51.0,6.01,6.31,,47.59359,-54.27349
2018-03-11 06:30:00+00:00,67.0,66.0,5.33,5.97,,47.59359,-54.27349
2018-03-11 06:40:00+00:00,61.0,65.0,4.89,5.49,,47.59359,-54.27349
2018-03-11 06:50:00+00:00,75.0,72.0,4.38,4.93,,47.59359,-54.27349
2018-03-11 07:00:00+00:00,74.0,69.0,3.56,4.0,,47.59359,-54.27349
2018-03-11 07:10:00+00:00,69.0,60.0,5.56,6.22,,47.59359,-54.27349
2018-03-11 07:20:00+00:00,59.0,60.0,6.24,6.57,,47.59359,-54.27349
2018-03-11 07:30:00+00:00,59.0,63.0,6.2,7.06,,47.59359,-54.27349
2018-03-11 07:40:00+00:00,56.0,57.0,6.34,7.09,,47.59359,-54.27349
2018-03-11 07:50:00+00:00,56.0,63.0,6.8,8.2,,47.59359,-54.27349
2018-03-11 08:00:00+00:00,55.0,54.0,6.85,7.52,,47.59359,-54.27349
2018-03-11 08:10:00+00:00,62.0,66.0,7.15,8.38,,47.59359,-54.27349
2018-03-11 08:20:00+00:00,63.0,67.0,6.76,7.74,,47.59359,-54.27349
2018-03-11 08:30:00+00:00,56.0,54.0,7.67,8.4,,47.59359,-54.27349
2018-03-11 08:40:00+00:00,64.0,63.0,8.73,9.6,,47.59359,-54.27349
2018-03-11 08:50:00+00:00,64.0,56.0,8.24,9.33,,47.59359,-54.27349
2018-03-11 09:00:00+00:00,70.0,76.0,7.73,10.36,,47.59359,-54.27349
2018-03-11 09:10:00+00:00,56.0,53.0,8.24,9.15,,47.59359,-54.27349
2018-03-11 09:20:00+00:00,59.0,61.0,8.08,8.93,,47.59359,-54.27349
2018-03-11 09:30:00+00:00,68.0,72.0,6.91,7.71,,47.59359,-54.27349
2018-03-11 09:40:00+00:00,73.0,73.0,7.23,7.92,,47.59359,-54.27349
2018-03-11 09:50:00+00:00,72.0,71.0,6.93,7.64,,47.59359,-54.27349
2018-03-11 10:00:00+00:00,69.0,64.0,7.1,7.91,,47.59359,-54.27349
2018-03-11 10:10:00+00:00,64.0,59.0,6.07,7.1,,47.59359,-54.27349
2018-03-11 10:20:00+00:00,69.0,70.0,5.84,6.8,,47.59359,-54.27349
2018-03-11 10:30:00+00:00,70.0,69.0,6.14,6.96,,47.59359,-54.27349
2018-03-11 10:40:00+00:00,72.0,68.0,6.03,6.66,,47.59359,-54.27349
2018-03-11 10:50:00+00:00,75.0,72.0,6.01,7.07,,47.59359,-54.27349
2018-03-11 11:00:00+00:00,70.0,73.0,5.65,6.95,,47.59359,-54.27349
2018-03-11 11:10:00+00:00,70.0,68.0,4.93,5.61,,47.59359,-54.27349
2018-03-11 11:20:00+00:00,63.0,62.0,6.51,7.36,,47.59359,-54.27349
2018-03-11 11:30:00+00:00,63.0,58.0,6.27,7.02,,47.59359,-54.27349
2018-03-11 11:40:00+00:00,66.0,66.0,5.64,6.61,,47.59359,-54.27349
2018-03-11 11:50:00+00:00,81.0,81.0,4.52,5.43,,47.59359,-54.27349
2018-03-11 12:00:00+00:00,99.0,87.0,2.85,5.47,,47.59359,-54.27349
2018-03-11 12:10:00+00:00,100.0,126.0,2.43,3.84,,47.59359,-54.27349
2018-03-11 12:20:00+00:00,113.0,131.0,1.51,2.95,,47.59359,-54.27349
2018-03-11 12:30:00+00:00,99.0,91.0,2.55,3.71,,47.59359,-54.27349
2018-03-11 12:40:00+00:00,116.0,103.0,2.46,4.18,,47.59359,-54.27349
2018-03-11 12:50:00+00:00,144.0,153.0,3.05,3.68,,47.59359,-54.27349
2018-03-11 13:00:00+00:00,114.0,138.0,2.25,3.55,,47.59359,-54.27349
2018-03-11 13:10:00+00:00,132.0,124.0,2.32,3.29,,47.59359,-54.27349
2018-03-11 13:20:00+00:00,119.0,103.0,3.34,4.82,,47.59359,-54.27349
2018-03-11 13:30:00+00:00,101.0,122.0,2.52,3.59,,47.59359,-54.27349
2018-03-11 13:40:00+00:00,103.0,87.0,2.01,3.14,,47.59359,-54.27349
2018-03-11 13:50:00+00:00,97.0,89.0,1.63,2.31,,47.59359,-54.27349
2018-03-11 14:00:00+00:00,125.0,123.0,2.68,3.68,,47.59359,-54.27349
2018-03-11 14:10:00+00:00,122.0,140.0,2.23,3.46,,47.59359,-54.27349
2018-03-11 14:20:00+00:00,130.0,131.0,2.37,3.01,,47.59359,-54.27349
2018-03-11 14:30:00+00:00,112.0,127.0,2.08,3.21,,47.59359,-54.27349
2018-03-11 14:40:00+00:00,78.0,73.0,2.25,2.95,,47.59359,-54.27349
2018-03-11 14:50:00+00:00,100.0,89.0,1.24,1.85,,47.59359,-54.27349
2018-03-11 15:00:00+00:00,83.0,87.0,2.67,3.69,,47.59359,-54.27349
2018-03-11 15:10:00+00:00,63.0,66.0,3.34,3.76,,47.59359,-54.27349
2018-03-11 15:20:00+00:00,58.0,57.0,4.48,5.0,,47.59359,-54.27349
2018-03-11 15:30:00+00:00,56.0,55.0,4.33,4.85,,47.59359,-54.27349
2018-03-11 15:40:00+00:00,55.0,54.0,4.1,4.47,,47.59359,-54.27349
2018-03-11 15:50:00+00:00,54.0,55.0,4.08,4.51,,47.59359,-54.27349
2018-03-11 16:00:00+00:00,57.0,58.0,3.55,4.01,,47.59359,-54.27349
2018-03-11 16:10:00+00:00,82.0,82.0,4.46,5.07,,47.59359,-54.27349
2018-03-11 16:20:00+00:00,83.0,86.0,4.97,5.36,,47.59359,-54.27349
2018-03-11 16:30:00+00:00,64.0,59.0,4.72,5.44,,47.59359,-54.27349
2018-03-11 16:40:00+00:00,57.0,55.0,5.11,5.6,,47.59359,-54.27349
2018-03-11 16:50:00+00:00,64.0,65.0,5.12,5.76,,47.59359,-54.27349
2018-03-11 17:00:00+00:00,64.0,63.0,5.34,6.1,,47.59359,-54.27349
2018-03-11 17:10:00+00:00,72.0,73.0,6.38,6.82,,47.59359,-54.27349
2018-03-11 17:20:00+00:00,74.0,76.0,5.95,6.5,,47.59359,-54.27349
2018-03-11 17:30:00+00:00,76.0,74.0,6.34,6.89,,47.59359,-54.27349
2018-03-11 17:40:00+00:00,79.0,81.0,5.53,6.14,,47.59359,-54.27349
2018-03-11 17:50:00+00:00,81.0,82.0,5.94,6.32,,47.59359,-54.27349
2018-03-11 18:00:00+00:00,85.0,87.0,4.92,5.93,,47.59359,-54.27349
2018-03-11 18:10:00+00:00,85.0,80.0,4.76,5.82,,47.59359,-54.27349
2018-03-11 18:40:00+00:00,80.0,80.0,4.4,5.36,,47.59359,-54.27349
2018-03-11 18:50:00+00:00,80.0,80.0,5.33,5.72,,47.59359,-54.27349
2018-03-11 19:00:00+00:00,76.0,77.0,5.38,6.33,,47.59359,-54.27349
2018-03-11 19:10:00+00:00,76.0,76.0,6.04,6.99,,47.59359,-54.27349
2018-03-11 19:20:00+00:00,74.0,71.0,5.02,5.69,,47.59359,-54.27349
2018-03-11 19:30:00+00:00,76.0,74.0,6.02,6.45,,47.59359,-54.27349
2018-03-11 19:40:00+00:00,76.0,75.0,6.46,6.84,,47.59359,-54.27349
2018-03-11 19:50:00+00:00,74.0,75.0,6.17,6.88,,47.59359,-54.27349
2018-03-11 20:00:00+00:00,74.0,78.0,5.29,6.25,,47.59359,-54.27349
2018-03-11 20:20:00+00:00,75.0,74.0,5.07,6.41,,47.59359,-54.27349
2018-03-11 20:30:00+00:00,77.0,76.0,5.16,6.2,,47.59359,-54.27349
2018-03-11 20:40:00+00:00,83.0,88.0,5.36,6.88,,47.59359,-54.27349
2018-03-11 21:30:00+00:00,82.0,72.0,7.48,8.53,,47.59359,-54.27349
2018-03-11 21:40:00+00:00,86.0,89.0,6.68,7.62,,47.59359,-54.27349
2018-03-11 21:50:00+00:00,86.0,88.0,7.36,8.72,,47.59359,-54.27349
2018-03-11 22:00:00+00:00,86.0,86.0,7.71,8.96,,47.59359,-54.27349
2018-03-11 22:10:00+00:00,86.0,85.0,7.56,8.42,,47.59359,-54.27349
2018-03-11 22:20:00+00:00,89.0,86.0,6.76,8.65,,47.59359,-54.27349
2018-03-11 22:30:00+00:00,84.0,83.0,7.88,8.98,,47.59359,-54.27349
2018-03-11 22:40:00+00:00,85.0,84.0,7.11,8.87,,47.59359,-54.27349
2018-03-11 22:50:00+00:00,85.0,85.0,7.53,8.54,,47.59359,-54.27349
2018-03-11 23:00:00+00:00,85.0,85.0,7.14,8.26,,47.59359,-54.27349
2018-03-11 23:10:00+00:00,85.0,82.0,7.14,8.43,,47.59359,-54.27349
2018-03-11 23:20:00+00:00,84.0,86.0,7.4,8.41,,47.59359,-54.27349
2018-03-11 23:30:00+00:00,88.0,87.0,6.65,8.06,,47.59359,-54.27349
2018-03-11 23:40:00+00:00,85.0,86.0,6.93,7.99,,47.59359,-54.27349
2018-03-11 23:50:00+00:00,84.0,81.0,7.58,8.36,,47.59359,-54.27349
